North Springfield, VT

9:09 AM EST on February 07, 2016 (GMT -0500)
Hartness State

Weather History for KVSF - January, 2013

Change the Weather History Date:

Friday, January 11, 2013

  Actual Average Record
Temperature  
Mean Temperature 27 °F 19 °F  
Max Temperature 35 °F 29 °F 46 °F (2014)
Min Temperature 19 °F 10 °F -13 °F (2004)
Degree Days  
Heating Degree Days 38 46  
Month to date heating degree days 469 495  
Since 1 July heating degree days 2875 3358  
Cooling Degree Days 0 0  
Month to date cooling degree days 0  
Year to date cooling degree days 0  
Moisture  
Dew Point 23 °F    
Average Humidity 74    
Maximum Humidity 96    
Minimum Humidity 52    
Precipitation  
Precipitation 0.09 in 0.09 in 0.68 in (2014)
Month to date precipitation 0.09 1.29  
Year to date precipitation 0.09 1.29  
Sea Level Pressure  
Sea Level Pressure 30.37 in    
Wind  
Wind Speed 2 mph (SSE)    
Max Wind Speed 12 mph    
Max Gust Speed 17 mph    
Visibility 9 miles    
Events Rain    
T = Trace of Precipitation, MM = Missing Value Source: NWS Daily Summary

Daily Weather History Graph

Daily Weather History Graph

Search for Another Location

Airport or City:

Trip Planner

Search our weather history database for the weather conditions in past years. The results will help you decide how hot, cold, wet, or windy it might be!

Date:

Astronomy

Jan. 11, 2013 Rise Set
Actual Time 7:21 AM EST 4:35 PM EST
Civil Twilight 6:49 AM EST 5:07 PM EST
Nautical Twilight 6:13 AM EST 5:42 PM EST
Astronomical Twilight 5:39 AM EST 6:17 PM EST
Moon 6:50 AM EST (1/11) 4:51 PM EST (1/11)
Length of Visible Light 10h 18m
Length of Day
9h 14m
Waning Crescent, 0% of the Moon is Illuminated
Jan 11
Waning Crescent
Jan 11
New
Jan 18
First Quarter
Jan 26
Full
Feb 3
Last Quarter

Hourly Weather History & Observations

Time (EST) Temp. Windchill Dew Point Humidity Pressure Visibility Wind Dir Wind Speed Gust Speed Precip Events Conditions
12:54 AM 21.9 °F 15.7 °F 18.0 °F 85% 30.55 in 10.0 mi South 4.6 mph - N/A   Clear
1:54 AM 23.0 °F - 18.0 °F 81% 30.53 in 10.0 mi Calm Calm - N/A   Clear
2:55 AM 21.0 °F - 17.1 °F 85% 30.51 in 10.0 mi Calm Calm - N/A   Unknown
3:54 AM 19.9 °F - 17.1 °F 89% 30.51 in 10.0 mi Calm Calm - N/A   Clear
4:54 AM 19.9 °F - 16.0 °F 85% 30.51 in 9.0 mi Calm Calm - N/A   Clear
5:54 AM 19.9 °F - 17.1 °F 89% 30.50 in 10.0 mi Calm Calm - N/A   Clear
6:54 AM 21.0 °F - 17.1 °F 85% 30.51 in 10.0 mi Calm Calm - N/A   Clear
7:54 AM 21.0 °F - 18.0 °F 88% 30.51 in 9.0 mi Calm Calm - N/A   Clear
8:54 AM 23.0 °F - 21.0 °F 92% 30.50 in 10.0 mi Calm Calm - N/A   Clear
9:54 AM 25.0 °F - 19.0 °F 78% 30.48 in 10.0 mi Calm Calm - N/A   Clear
10:54 AM 28.9 °F - 19.9 °F 69% 30.44 in 10.0 mi Calm Calm - N/A   Clear
11:54 AM 32.0 °F - 21.0 °F 64% 30.42 in 10.0 mi Calm Calm - N/A   Clear
12:54 PM 35.1 °F 28.6 °F 19.9 °F 54% 30.38 in 10.0 mi SSE 8.1 mph - N/A   Mostly Cloudy
1:54 PM 35.1 °F 32.2 °F 19.9 °F 54% 30.35 in 10.0 mi SSE 3.5 mph - N/A   Overcast
2:54 PM 35.1 °F - 21.0 °F 57% 30.32 in 10.0 mi Calm Calm - N/A   Mostly Cloudy
3:41 PM 35.6 °F - 21.2 °F 56% 30.28 in 10.0 mi Calm Calm - N/A   Overcast
3:54 PM 35.1 °F 31.0 °F 21.0 °F 57% 30.32 in 10.0 mi Variable 4.6 mph - N/A   Overcast
4:38 PM 33.8 °F 27.0 °F 23.0 °F 65% 30.27 in 10.0 mi South 8.1 mph - 0.00 in Rain Light Rain
4:54 PM 34.0 °F - 24.1 °F 67% 30.29 in 10.0 mi Calm Calm - 0.00 in Rain Light Rain
5:46 PM 32.0 °F 26.4 °F 28.4 °F 87% 30.23 in 7.0 mi South 5.8 mph - 0.03 in Rain Light Rain
5:54 PM 32.0 °F 28.7 °F 28.0 °F 85% 30.27 in 6.0 mi South 3.5 mph - 0.03 in   Overcast
6:54 PM 32.0 °F 28.7 °F 28.9 °F 88% 30.26 in 10.0 mi SSE 3.5 mph - 0.01 in   Overcast
7:54 PM 33.1 °F 30.0 °F 28.9 °F 85% 30.24 in 8.0 mi SE 3.5 mph - 0.01 in   Overcast
8:54 PM 33.1 °F - 30.0 °F 89% 30.22 in 9.0 mi Calm Calm - 0.01 in   Overcast
9:34 PM 32.0 °F - 30.2 °F 93% 30.20 in 4.0 mi Calm Calm - 0.01 in   Overcast
9:54 PM 32.0 °F - 30.0 °F 92% 30.24 in 4.0 mi Calm Calm - 0.02 in   Overcast
10:54 PM 33.1 °F 30.0 °F 30.9 °F 92% 30.21 in 3.0 mi South 3.5 mph - 0.01 in   Overcast
11:54 PM 33.1 °F 30.0 °F 30.9 °F 92% 30.19 in 5.0 mi Variable 3.5 mph - N/A   Overcast